Flag for Poland Weather past 2 weeks in Koszalin, Poland

Now
62 °F

Passing clouds.


Feels Like: 62 °F
Forecast: 55 / 64 °F
Wind: 2 mph from Northwest

Location: Koszalin

Current Time: Aug 23, 2014 at 8:31:48 PM

Latest Report: Aug 23, 2014 at 7:00 PM


Visibility: 25 mi

Pressure: 29.85 "Hg

Humidity: 61%

Dew point: 48 °F

Location of KoszalinLocation

Historic Weather in Koszalin — Graph

°F

Koszalin temperature yesterday

Maximum temperature yesterday: 67 °F (at 2:00 PM)
Minimum temperature yesterday: 48 °F (at 5:00 AM)
Average temperature yesterday: 58 °F

Past Weeks' High & Low Weather Summary

 TemperatureHumidityPressure
High85 °F (Aug 9, 4:00 PM)92% (Aug 16, 7:00 AM)30.01 "Hg (Aug 16, 7:00 AM)
Low48 °F (Aug 22, 5:00 AM)35% (Aug 9, 4:00 PM)29.54 "Hg (Aug 18, 6:00 PM)
Average62 °F70%29.81 "Hg
* Reported Aug 8 7:00 PM — Aug 23 7:00 PM, Koszalin, Weather by CustomWeather, © 2014

Note: Actual official high and low records may vary slightly from our data, if they occured in-between our weather recording intervals... More about our weather records

Advertising

Koszalin weather history for previous 24 hours

 ConditionsComfort  
Time TempWeatherWind HumidityBarometerVisibility
7:00 PM
Aug 23
62 °FPassing clouds.2 mph61%29.85 "Hg25 mi
6:00 PM64 °FPartly sunny.2 mph60%29.84 "Hg22 mi
5:00 PM64 °FPartly sunny.3 mph59%29.85 "Hg22 mi
4:00 PM63 °FOvercast.5 mph59%29.85 "Hg28 mi
3:00 PM63 °FOvercast.5 mph59%29.85 "Hg22 mi
2:00 PM65 °FPartly sunny.6 mph47%29.85 "Hg17 mi
1:00 PM62 °FOvercast.5 mph62%29.85 "Hg25 mi
12:00 PM63 °FOvercast.5 mph53%29.84 "Hg25 mi
11:00 AM61 °FOvercast.6 mph61%29.84 "Hg28 mi
10:00 AM59 °FOvercast.5 mph68%29.83 "Hg22 mi
9:00 AM58 °FOvercast.5 mph71%29.83 "Hg22 mi
8:00 AM56 °FOvercast.3 mph70%29.82 "Hg19 mi
7:00 AM55 °FOvercast.3 mph68%29.81 "Hg25 mi
6:00 AM54 °FOvercast.No wind69%29.80 "Hg31 mi
5:00 AM55 °FOvercast.1 mph68%29.80 "Hg31 mi
4:00 AM55 °FOvercast.2 mph67%29.80 "Hg31 mi
3:00 AM56 °FPassing clouds.2 mph67%29.82 "Hg31 mi
2:00 AM56 °FPassing clouds.3 mph68%29.83 "Hg31 mi
1:00 AM57 °FOvercast.2 mph66%29.84 "Hg31 mi
12:00 AM58 °FOvercast.3 mph64%29.85 "Hg28 mi
11:00 PM
Aug 22
60 °FOvercast.3 mph63%29.86 "Hg22 mi
10:00 PM60 °FOvercast.2 mph60%29.87 "Hg28 mi
9:00 PM61 °FOvercast.2 mph59%29.87 "Hg25 mi
8:00 PM63 °FOvercast.2 mph55%29.86 "Hg28 mi
Weather by CustomWeather, © 2014

See weather overviewHow to use our weather pages